PROMETHEUS 2-3

Last updated on Tue Jul 01 2025 00:03:44 GMT+0000 (Coordinated Universal Time)

1 41855U 16067H 25181.54233150 .00035509 00000+0 63269-3 0 9993 2 41855 98.0679 36.5181 0005880 165.3321 194.8100 15.50019312473655
UTC large
Height (km)
Speed (km/s)
/
Latitude / Longitude
Inclination (degrees)
Orbital Period (minutes)
Azimuth
Elevation
Range (km)
Doppler Factor

Next 0 passes for location: London (51.5072 / 0.1276)

Sorry there are no passes over London.